This is the latest recevied weather packets stored in our database for station/object WD4ITN. If no packets are shown the sender has not sent any weather packets the latest 10 day(s).
| Time | Temp. | Humidity | Pressure | Rain* | Wind** | Luminosity | Snow |
|---|---|---|---|---|---|---|---|
| 1777828716 | 10° C | 39% | 1014.9 hPa | 0 mm | - | - | - |
| 1777828411 | 9.44° C | 39% | 1015.1 hPa | 0 mm | - | - | - |
| 1777828107 | 10° C | 42% | 1015.1 hPa | 0 mm | - | - | - |
| 1777827799 | 9.44° C | 42% | 1015 hPa | 0 mm | - | - | - |
| 1777827500 | 8.89° C | 44% | 1015 hPa | 0 mm | - | - | - |
| 1777827204 | 9.44° C | 39% | 1015.1 hPa | 0 mm | - | - | - |
| 1777826921 | 8.89° C | 45% | 1015.1 hPa | 0 mm | - | - | - |
| 1777826609 | 8.89° C | 46% | 1015.3 hPa | 0 mm | - | - | - |
| 1777826311 | 8.89° C | 42% | 1015.4 hPa | 0 mm | - | - | - |
| 1777826003 | 8.89° C | 46% | 1015.6 hPa | 0 mm | - | - | - |
| 1777825701 | 8.33° C | 48% | 1015.4 hPa | 0 mm | - | - | - |
| 1777825405 | 8.33° C | 44% | 1015.5 hPa | 0 mm | - | - | - |
| 1777825097 | 8.33° C | 50% | 1015.7 hPa | 0 mm | - | - | - |
| 1777824797 | 8.33° C | 49% | 1015.7 hPa | 0 mm | - | - | - |
| 1777824517 | 8.89° C | 46% | 1015.7 hPa | 0 mm | - | - | - |
| 1777824209 | 8.33° C | 48% | 1015.7 hPa | 0 mm | - | - | - |
| 1777823906 | 8.33° C | 46% | 1015.9 hPa | 0 mm | - | - | - |
| 1777823606 | 7.78° C | 49% | 1015.8 hPa | 0 mm | - | - | - |
| 1777823297 | 7.78° C | 50% | 1016 hPa | 0 mm | - | - | - |
| 1777822996 | 7.78° C | 50% | 1016 hPa | 0 mm | - | - | - |
| 1777822718 | 7.78° C | 52% | 1016 hPa | 0 mm | - | - | - |
| 1777822406 | 7.78° C | 47% | 1016 hPa | 0 mm | - | - | - |
| 1777822109 | 7.78° C | 52% | 1016.1 hPa | 0 mm | - | - | - |
| 1777821806 | 7.78° C | 52% | 1016 hPa | 0 mm | - | - | - |
| 1777821524 | 7.78° C | 52% | 1016 hPa | 0 mm | - | - | - |
* Rain since midnight (hover to see other rain measurements)
** Current wind speed in m/s (hover to see current wind gust speed)